www.pogodaiklimat.ru

Погода и климат >> Архив погоды >> Южная Африка >> Хоэдспруит


ПОГОДА в Хоэдспруите

  • Прогноз погоды в Хоэдспруите
  • Монитор погоды в Хоэдспруите

АРХИВ ПОГОДЫ в Хоэдспруите

Время (UTC), дата Ветер
(напр.,м/с)
 
Видим.   Явления Облачность Т
(С)
Тd
(С)
f
(%)
Тe
(С)
Тes
(С)
Комфортность P
(гПа)
Po
(гПа)
Тmin
(С)
Tmax
(С)
R
(мм)
R24
(мм)
S
(см)
12 11.08 СЗ 4 н/о н/о +29.1 +8.5 28 +29 +29 жарко 957.9 +11.8 +29.8
15 11.08 СЗ 3 н/о н/о +29.2 +6.2 23 +28 +28 жарко 957.4 +28.7 +31.0
18 11.08 СВ 3 н/о н/о +21.9 +9.2 44 +23 +23 комфорт 958.7 +21.6 +31.0
21 11.08 СЗ 2 н/о н/о +19.5 +8.6 49 +21 +21 комфорт 958.7 +19.5 +31.0
00 12.08 С 2 н/о н/о +19.1 +8.2 49 +20 +20 957.1 +18.8 +31.0
03 12.08 З 2 н/о н/о +16.9 +7.9 55 +17 +17 956.6 +16.4 +31.0
06 12.08 С 2 н/о н/о +19.5 +7.0 44 +21 +21 комфорт 958.7 +14.2
09 12.08 СЗ 4 н/о н/о +31.5 +3.8 17 +29 +29 жарко 957.9 +14.2 +31.5
12 12.08 С 6 н/о н/о +34.3 -13.1 4 +30 +30 жарко 955.7 +14.2 +34.6
15 12.08 С 4 н/о н/о +32.3 -11.8 5 +28 +28 жарко 955.8 +32.0 +35.5
18 12.08 В 2 н/о н/о +27.1 -6.8 10 +24 +24 комфорт 957.8 +27.0 +35.5
21 12.08 Ю 7 н/о н/о +18.4 +15.3 82 +18 +18 961.6 +18.4 +35.5
00 13.08 Ю 7 н/о н/о +15.8 +10.1 69 +14 +14 962.5 +15.8 +35.5
03 13.08 Ю 5 н/о н/о +15.2 +10.4 73 +14 +14 964.2 +15.0 +35.5
06 13.08 Ю 5 н/о н/о +17.2 +11.0 67 +17 +17 966.1 +14.8
09 13.08 Ю 5 н/о н/о +21.6 +10.8 50 +23 +23 комфорт 966.6 +14.8 +21.8
12 13.08 ЮВ 3 н/о н/о +23.7 +10.9 44 +25 +25 комфорт 963.7 +14.8 +24.4
15 13.08 ЮВ 3 н/о н/о +23.2 +10.7 45 +25 +25 комфорт 963.1 +23.2 +25.4
18 13.08 ЮВ 2 н/о н/о +19.9 +11.2 57 +22 +22 комфорт 964.2 +19.8 +25.4
09 14.08 С 4 н/о н/о +23.1 +13.4 54 +26 +26 жарко 965.6 +13.6 +23.2
12 14.08 С 5 н/о н/о +28.2 +10.2 33 +29 +29 жарко 962.8 +13.6 +28.9
15 14.08 СВ 2 н/о н/о +28.1 +9.1 30 +28 +28 жарко 962.9 +28.0 +29.6
18 14.08 ЮВ 3 н/о н/о +22.0 +8.3 41 +23 +23 комфорт 965.2 +21.9 +29.6
21 14.08 Ю 6 н/о н/о +19.9 +14.9 73 +22 +22 комфорт 968.5 +19.8 +29.6
00 15.08 Ю 7 н/о н/о +18.7 +12.5 67 +19 +19 969.6 +18.5 +29.6
03 15.08 Ю 6 н/о н/о +17.2 +11.0 67 +16 +16 970.6 +17.2 +29.6
06 15.08 Ю 5 н/о н/о +17.9 +6.5 47 +17 +17 972.7 +16.5
09 15.08 Ю 6 н/о н/о +21.9 +6.3 36 +23 +23 комфорт 973.1 +16.5 +22.0
12 15.08 ЮВ 5 н/о н/о +24.2 +5.7 30 +24 +24 комфорт 970.7 +16.5 +24.2
15 15.08 ЮВ 3 н/о н/о +22.7 +5.8 33 +23 +23 комфорт 969.8 +22.6 +25.0
18 15.08 Ю 2 н/о н/о +18.6 +6.5 45 +19 +19 969.9 +18.6 +25.0
21 15.08 ЮВ 2 н/о н/о +16.6 +7.0 53 +17 +17 969.4 +16.5 +25.0
00 16.08 Ю 1 н/о н/о +13.5 +8.6 72 +14 +14 968.0 +12.9 +25.0
03 16.08 С 2 н/о н/о +12.1 +8.9 81 +11 +11 966.4 +11.3 +25.0
06 16.08 С 2 н/о н/о +14.0 +7.5 65 +14 +14 967.0 +10.4
09 16.08 С 3 н/о н/о +23.5 +6.9 34 +24 +24 комфорт 965.6 +10.4 +23.5
12 16.08 С 3 н/о н/о +28.1 +5.9 24 +27 +27 жарко 962.1 +10.4 +28.7
15 16.08 СВ 3 н/о н/о +27.8 +5.0 23 +27 +27 жарко 961.2 +27.8 +29.6
18 16.08 СВ 1 н/о н/о +22.5 +4.7 31 +23 +23 комфорт 961.8 +22.3 +29.6
21 16.08 СЗ 1 н/о н/о +21.6 +3.9 31 +22 +22 комфорт 962.2 +20.3 +29.6
00 17.08 З 2 н/о н/о +17.4 +3.4 39 +18 +18 960.8 +17.2 +29.6
03 17.08 З 2 н/о н/о +16.1 +4.5 46 +17 +17 960.2 +13.8 +29.6
06 17.08 Ю 8 н/о н/о +19.9 +5.6 39 +20 +20 963.7 +12.8
09 17.08 Ю 8 н/о н/о +21.6 +10.2 48 +23 +23 комфорт 965.3 +12.8 +22.1
12 17.08 Ю 7 н/о н/о +24.3 +10.0 40 +25 +25 комфорт 963.6 +12.8 +25.3
15 17.08 Ю 6 н/о н/о +22.3 +9.9 45 +24 +24 комфорт 964.0 +22.1 +25.4
18 17.08 ЮВ 5 н/о н/о +17.9 +11.5 66 +17 +17 966.5 +17.8 +25.4
21 17.08 Ю 5 н/о н/о +16.8 +12.4 75 +16 +16 967.6 +16.7 +25.4
00 18.08 Ю 3 н/о н/о +15.0 +12.5 85 +14 +14 966.7 +15.0 +25.4
03 18.08 Ю 2 н/о н/о +14.0 +12.4 90 +13 +13 966.7 +13.9 +25.4
06 18.08 Ю 1 н/о н/о +15.5 +12.6 83 +16 +16 968.4 +12.9

 

Местоположение метеостанции Хоэдспруит (Южная Африка): широта -24.35 долгота 31.05 высота над уровнем моря 524 м.

В архиве по умолчанию представлена погода в Хоэдспруите за последнюю неделю. Архивные данные за месяц целиком и за предыдущие месяцы, начиная с января 2011 года, Вы можете получить, выбрав интересующий диапазон дат из раскрывающегося списка и нажав кнопку "Ввод!".


*Определитесь, кто Вы:
робот инопланетянин человек

Внимание! Время в таблицах - всемирное. Для получения местного времени необходимо прибавить поправку, которая равна 2 ч.

Смотрите также архив погоды в соседних городах и на ближайших метеорологических станциях:

Погода на Базе ВВС Hoedspruit (Южная Африка) (3 км)
Погода в Пхалаборве (Южная Африка) (47 км)
Погода в Граскопе (Южная Африка) (68 км)
Погода в Граскоп-Скуле (Южная Африка) (68 км)
Погода в Вувулане (Свазиленд) (88 км)
Погода в Скукузе (Южная Африка) (89 км)
Погода в Линденбурге 2 (Южная Африка) (102 км)
Погода в Линденбурге (Южная Африка) (103 км)
Погода в Тзанеене (Южная Африка) (108 км)
Погода в Тзанеен-Греншоек (Южная Африка) (119 км)

Пояснения к столбцам:

Ветер - указаны скорость ветра в м/с - средняя за 10 мин, порывы в срок и между сроками (в фигурных скобках) и направление, откуда дует ветер: С - северный, СВ - северо-восточный, В - восточный, ЮВ - юго-восточный, Ю - южный, ЮЗ - юго-западный, З - западный, СЗ - северо-западный.
Видимость - горизонтальная дальность видимости в метрах или километрах. При видимости от 1 до 10 км при отсутствии осадков обычно наблюдается дымка, при ухудшении видимости до 1 км и менее - туман. В сухую погоду видимость может ухудшаться дымом, пылью или мглою.
Явления - указаны атмосферные явления, наблюдавшиеся в срок или в последний час перед сроком; фигурными скобками обозначены явления, наблюдавшиеся между сроками (за 1-3 часа до срока); квадратными скобками обозначены град или гололедные отложения с указанием их диаметра в мм.
Облачность - указаны через наклонную черту общая и нижняя облачность в баллах и высота нижней границы облаков в метрах; квадратными скобками обозначены формы облаков: Ci - перистые, Cs - перисто-слоистые, Cc - перисто-кучевые, Ac - высококучевые, As - высокослоистые, Sc - слоисто-кучевые, Ns - слоисто-дождевые, Cu - кучевые, Cb - кучево-дождевые. Подробнее классификацию облаков см. в Атласе облаков (PDF).
T - Температура воздуха - температура, измеренная на высоте 2 м над землей.
Td - Температура точки росы - температура, при понижении до которой содержащийся в воздухе водяной пар достигнет насыщения.
f - Относительная влажность воздуха - влажноcть воздуха, измеренная на высоте 2 м над землей.
Te - Эффективная температура - температура, которую ощущает одетый по сезону человек в тени. Характеристика душности погоды. При расчете учитывается влияние влажности воздуха и скорости ветра на теплоощущения человека.
Tes - Эффективная температура на солнце - температура, которую ощущает человек, с поправкой на солнечный нагрев. Характеристика знойности погоды. Зависит от высоты солнца над горизонтом, облачности и скорости ветра. Ночью, в пасмурную погоду, а также при ветре 12 м/с и более поправка равна нулю.
P - Атмосферное давление - приведенное к уровню моря атмосферное давление.
Po - Атмосферное давление - измеренное на уровне метеостанции атмосферное давление.
Tmin - Минимальная температура - минимум температуры воздуха на высоте 2 м над землей.
Tmax - Максимальная температура - максимум температуры воздуха на высоте 2 м над землей.
R - Количество осадков - Количество выпавших осадков за период времени, мм. При наведении курсора мыши на число - период времени, за который выпало указанное количество осадков.
R24 - Количество осадков - Количество выпавших осадков за 24 часа, мм.
S - Снежный покров - Высота снежного покрова, см. При наведении курсора мыши на число - состояние снежного покрова и степень покрытия местности в баллах.